This is the latest recevied weather packets stored in our database for station/object SM6LNJ-13. If no packets are shown the sender has not sent any weather packets the latest 10 day(s).
| Time | Temp. | Humidity | Pressure | Rain* | Wind** | Luminosity | Snow |
|---|---|---|---|---|---|---|---|
| 1777741073 | 17.22° C | 46% | 1436.6 hPa | 0 mm | - | - | - |
| 1777739753 | 18.33° C | 47% | 1439.1 hPa | 0 mm | - | - | - |
| 1777739152 | 18.89° C | 49% | 1440.4 hPa | 0 mm | - | - | - |
| 1777738792 | 20° C | 48% | 1442.8 hPa | 0 mm | - | - | - |
| 1777738672 | 20.56° C | 48% | 1443.8 hPa | 0 mm | - | - | - |
| 1777738313 | 20° C | 50% | 1442.8 hPa | 0 mm | - | - | - |
| 1777738192 | 19.44° C | 49% | 1442 hPa | 0 mm | - | - | - |
| 1777738073 | 19.44° C | 49% | 1441.7 hPa | 0 mm | - | - | - |
| 1777737953 | 19.44° C | 50% | 1441.7 hPa | 0 mm | - | - | - |
| 1777737713 | 20.56° C | 47% | 1444.1 hPa | 0 mm | - | - | - |
| 1777737473 | 20.56° C | 48% | 1444.6 hPa | 0 mm | - | - | - |
| 1777736393 | 20.56° C | 50% | 1443.7 hPa | 0 mm | - | - | - |
| 1777736272 | 20° C | 50% | 1443.2 hPa | 0 mm | - | - | - |
| 1777735912 | 20.56° C | 50% | 1443.8 hPa | 0 mm | - | - | - |
| 1777735792 | 20.56° C | 50% | 1444.1 hPa | 0 mm | - | - | - |
| 1777735672 | 20.56° C | 50% | 1443.7 hPa | 0 mm | - | - | - |
| 1777735312 | 20° C | 49% | 1442.9 hPa | 0 mm | - | - | - |
| 1777735192 | 20.56° C | 49% | 1443.9 hPa | 0 mm | - | - | - |
| 1777735073 | 20° C | 49% | 1443.2 hPa | 0 mm | - | - | - |
| 1777734952 | 20.56° C | 49% | 1444.3 hPa | 0 mm | - | - | - |
| 1777734713 | 21.11° C | 49% | 1445.3 hPa | 0 mm | - | - | - |
| 1777734592 | 21.11° C | 50% | 1445.1 hPa | 0 mm | - | - | - |
| 1777734472 | 21.11° C | 49% | 1444.9 hPa | 0 mm | - | - | - |
| 1777734352 | 20.56° C | 49% | 1444.5 hPa | 0 mm | - | - | - |
| 1777734112 | 21.67° C | 47% | 1446.2 hPa | 0 mm | - | - | - |
* Rain latest hour (hover to see other rain measurements)
** Current wind speed in m/s (hover to see current wind gust speed)